Flag for Germany Weather past 2 weeks in Dessau-Rosslau, Saxony-Anhalt, Germany

Now
50 °F

Passing clouds.


Feels Like: 43 °F
Forecast: 43 / 49 °F
Wind: 25 mph from Southwest

Location: Leipzig-Schkeuditz

Current Time: Dec 23, 2014 at 5:52:28 AM

Latest Report: Dec 23, 2014 at 5:20 AM


Visibility: N/A

Pressure: 29.95 "Hg

Humidity: 82%

Dew point: 45 °F

Location of Dessau-RosslauLocation

Historic Weather in Dessau-Rosslau — Graph

°F

Dessau-Rosslau temperature yesterday

Maximum temperature yesterday: 50 °F (at 7:20 PM)
Minimum temperature yesterday: 45 °F (at 12:20 AM)
Average temperature yesterday: 48 °F

Past Weeks' High & Low Weather Summary

 TemperatureHumidityPressure
High54 °F (Dec 18, 9:50 PM)100% (Dec 8, 4:20 AM)30.36 "Hg (Dec 8, 4:20 AM)
Low27 °F (Dec 9, 1:50 AM)66% (Dec 12, 1:20 PM)29.45 "Hg (Dec 12, 7:20 PM)
Average41 °F87%29.93 "Hg
* Reported Dec 8 4:20 AM — Dec 23 4:20 AM, Dessau-Rosslau, Weather by CustomWeather, © 2014

Note: Actual official high and low records may vary slightly from our data, if they occured in-between our weather recording intervals... More about our weather records

Advertising

Dessau-Rosslau weather history for previous 24 hours

 ConditionsComfort  
Time TempWeatherWind HumidityBarometerVisibility
4:20 AM
Dec 23
50 °FLight rain. Passing clouds.26 mph82%29.95 "HgN/A
3:50 AM50 °FPassing clouds.29 mph82%29.95 "HgN/A
3:20 AM50 °FPartly cloudy.29 mph82%29.95 "HgN/A
2:50 AM50 °FPassing clouds.29 mph82%29.95 "HgN/A
2:20 AM50 °FPassing clouds.28 mph82%29.95 "HgN/A
1:50 AM50 °FPassing clouds.23 mph82%29.95 "HgN/A
1:20 AM50 °FPassing clouds.26 mph82%29.95 "HgN/A
12:50 AM50 °FPassing clouds.26 mph82%29.95 "HgN/A
12:20 AM50 °FPassing clouds.30 mph82%29.95 "HgN/A
11:50 PM
Dec 22
50 °FPassing clouds.30 mph82%29.95 "HgN/A
11:20 PM50 °FPassing clouds.30 mph82%29.95 "HgN/A
10:50 PM50 °FPassing clouds.30 mph82%29.95 "HgN/A
10:20 PM50 °FPartly cloudy.30 mph76%29.95 "HgN/A
9:50 PM50 °FPartly cloudy.29 mph76%29.95 "HgN/A
9:20 PM50 °FOvercast.31 mph76%29.92 "HgN/A
8:50 PM50 °FMostly cloudy.28 mph76%29.95 "HgN/A
8:20 PM50 °FPartly cloudy.26 mph76%29.95 "HgN/A
7:50 PM50 °FPartly cloudy.29 mph76%29.95 "HgN/A
7:20 PM50 °FPassing clouds.32 mph76%29.95 "HgN/A
6:50 PM48 °FClear.31 mph82%29.95 "Hg10 mi
6:20 PM48 °FPassing clouds.36 mph82%29.92 "HgN/A
5:50 PM48 °FPassing clouds.33 mph82%29.92 "HgN/A
5:20 PM48 °FPartly cloudy.30 mph82%29.92 "HgN/A
4:50 PM48 °FPassing clouds.26 mph82%29.95 "HgN/A
4:20 PM48 °FPassing clouds.30 mph82%29.95 "HgN/A
3:50 PM48 °FPartly sunny.31 mph82%29.95 "HgN/A
3:20 PM48 °FPartly sunny.30 mph82%29.95 "HgN/A
2:50 PM48 °FBroken clouds.29 mph82%29.95 "HgN/A
2:20 PM48 °FPartly sunny.33 mph82%29.95 "HgN/A
1:50 PM48 °FPartly sunny.38 mph82%29.92 "HgN/A
1:20 PM48 °FPartly sunny.35 mph82%29.92 "HgN/A
12:50 PM48 °FPartly sunny.37 mph82%29.95 "HgN/A
12:20 PM48 °FPartly sunny.43 mph82%29.92 "HgN/A
11:50 AM48 °FPartly sunny.33 mph82%29.92 "HgN/A
11:20 AM48 °FPartly sunny.33 mph82%29.95 "HgN/A
10:50 AM48 °FPartly sunny.29 mph76%29.98 "HgN/A
10:20 AM48 °FPartly sunny.37 mph76%29.95 "HgN/A
9:50 AM48 °FPartly sunny.35 mph76%29.95 "HgN/A
9:20 AM46 °FPartly sunny.29 mph82%29.95 "HgN/A
8:50 AM46 °FPartly sunny.30 mph82%29.98 "HgN/A
8:20 AM46 °FPartly sunny.30 mph82%29.98 "HgN/A
7:50 AM46 °FPassing clouds.32 mph82%29.95 "HgN/A
7:20 AM46 °FLight rain. Passing clouds.33 mph87%29.98 "HgN/A
6:50 AM46 °FLight rain. Passing clouds.35 mph82%29.98 "HgN/A
6:20 AM46 °FPassing clouds.33 mph82%29.98 "HgN/A
5:50 AM46 °FPassing clouds.31 mph82%29.98 "HgN/A
5:20 AM46 °FPassing clouds.31 mph82%29.98 "HgN/A
Weather by CustomWeather, © 2014

See weather overviewHow to use our weather pages